Tracking 27172 objects as of 2-Apr-2023
HD Live streaming from Space Station
objects crossing your sky now

CRRES DEB (CANISTER)

Track CRRES DEB (CANISTER) now!


NORAD ID: 29531
Int'l Code: 1990-065Y
Perigee: 310.4 km
Apogee: 33,149.4 km
Inclination: 17.3 °
Period: 582.4 minutes
Semi major axis: 23100 km
RCS: 0.0683 m2 (small)
Launch date: July 25, 1990
Source: United States (US)
Launch site: AIR FORCE EASTERN TEST RANGE (AFETR)

Note: This is SATELLITE DEBRIS
Your satellite tracking list
Your tracking list is empty




NASA's NSSDC Master Catalog

Two Line Element Set (TLE):
1 29531U 90065Y   23082.41962895  .00002345  00000-0  13710-2 0  9997
2 29531  17.2538 173.5449 7107725 286.0985  11.4580  2.47263083153012
Source of the keplerian elements: AFSPC